QPF
0.00 0.00 0.00 0.00 0.00 0.00 0.00 0.00 0.00 0.00 0.00 0.00 0.00 0.00 0.00 0.01 0.01 0.01 0.01 0.02 0.02 0.03 0.04 0.03 0.03 0.04 0.04 0.05 0.07 0.09 0.10 0.11 0.11 0.11 0.10 0.07 0.03 0.01 0.01 0.02 0.02 0.02 0.01 0.01
0.00 0.00 0.00 0.00 0.00 0.00 0.00 0.00 0.00 0.00 0.00 0.01 0.00 0.01 0.01 0.01 0.01 0.01 0.01 0.01 0.01 0.02 0.04 0.05 0.05 0.05 0.06 0.07 0.10 0.11 0.09 0.08 0.09 0.10 0.10 0.07 0.04 0.02 0.02 0.02 0.02 0.02 0.01 0.01
0.00 0.00 0.00 0.00 0.00 0.00 0.00 0.00 0.01 0.01 0.00 0.01 0.01 0.02 0.02 0.02 0.01 0.01 0.01 0.01 0.01 0.02 0.04 0.05 0.08 0.11 0.12 0.11 0.11 0.10 0.09 0.08 0.08 0.07 0.06 0.04 0.04 0.03 0.02 0.03 0.03 0.03 0.03 0.03
0.00 0.00 0.00 0.00 0.00 0.01 0.01 0.01 0.01 0.01 0.01 0.02 0.02 0.02 0.02 0.02 0.02 0.02 0.02 0.02 0.02 0.03 0.05 0.06 0.08 0.10 0.11 0.10 0.09 0.07 0.06 0.06 0.07 0.05 0.04 0.04 0.05 0.04 0.03 0.05 0.06 0.05 0.05 0.05
0.00 0.00 0.01 0.01 0.01 0.01 0.02 0.02 0.02 0.03 0.04 0.03 0.03 0.03 0.03 0.03 0.02 0.03 0.04 0.04 0.04 0.04 0.05 0.07 0.07 0.08 0.06 0.04 0.03 0.03 0.03 0.04 0.05 0.05 0.06 0.06 0.07 0.07 0.08 0.08 0.08 0.08 0.08 0.07
0.01 0.01 0.01 0.01 0.01 0.01 0.01 0.02 0.03 0.07 0.11 0.12 0.08 0.05 0.04 0.03 0.02 0.04 0.06 0.04 0.03 0.03 0.04 0.04 0.04 0.04 0.03 0.02 0.02 0.03 0.03 0.04 0.06 0.08 0.10 0.08 0.08 0.10 0.12 0.13 0.14 0.13 0.09 0.07
0.01 0.01 0.00 0.01 0.01 0.01 0.02 0.03 0.05 0.08 0.11 0.12 0.10 0.08 0.06 0.05 0.03 0.03 0.02 0.02 0.02 0.02 0.02 0.01 0.01 0.01 0.01 0.02 0.03 0.05 0.07 0.06 0.07 0.08 0.09 0.08 0.07 0.08 0.09 0.10 0.10 0.08 0.06 0.05
0.01 0.01 0.01 0.01 0.01 0.02 0.03 0.04 0.06 0.09 0.09 0.07 0.09 0.12 0.09 0.05 0.03 0.03 0.03 0.02 0.02 0.01 0.02 0.01 0.01 0.01 0.01 0.02 0.03 0.03 0.05 0.07 0.06 0.06 0.06 0.07 0.08 0.09 0.09 0.09 0.08 0.07 0.06 0.05
0.01 0.02 0.01 0.01 0.02 0.02 0.02 0.03 0.05 0.06 0.06 0.05 0.06 0.09 0.11 0.08 0.05 0.03 0.02 0.02 0.02 0.01 0.01 0.01 0.01 0.01 0.02 0.02 0.02 0.02 0.02 0.03 0.04 0.03 0.03 0.02 0.03 0.05 0.04 0.04 0.05 0.05 0.05 0.04
0.02 0.02 0.02 0.01 0.01 0.01 0.01 0.01 0.01 0.02 0.03 0.03 0.03 0.04 0.06 0.08 0.05 0.02 0.01 0.01 0.01 0.02 0.02 0.01 0.01 0.01 0.02 0.02 0.01 0.01 0.02 0.03 0.04 0.03 0.03 0.03 0.03 0.05 0.04 0.03 0.04 0.05 0.05 0.05
0.02 0.01 0.01 0.01 0.01 0.01 0.01 0.01 0.01 0.02 0.02 0.02 0.03 0.02 0.03 0.02 0.02 0.02 0.01 0.01 0.01 0.01 0.02 0.01 0.01 0.02 0.02 0.01 0.01 0.02 0.03 0.04 0.04 0.04 0.04 0.05 0.06 0.07 0.08 0.07 0.06 0.07 0.07 0.07
0.02 0.01 0.01 0.01 0.01 0.01 0.02 0.02 0.02 0.03 0.02 0.02 0.02 0.02 0.02 0.02 0.01 0.02 0.02 0.01 0.02 0.02 0.02 0.02 0.02 0.02 0.02 0.01 0.02 0.03 0.03 0.04 0.03 0.03 0.03 0.04 0.06 0.07 0.08 0.09 0.09 0.08 0.07 0.05
0.01 0.01 0.01 0.01 0.01 0.01 0.02 0.04 0.05 0.04 0.03 0.03 0.03 0.04 0.02 0.02 0.02 0.02 0.02 0.02 0.02 0.03 0.03 0.03 0.03 0.02 0.02 0.01 0.02 0.03 0.03 0.03 0.04 0.05 0.06 0.06 0.07 0.08 0.10 0.12 0.13 0.12 0.10 0.08
0.01 0.01 0.01 0.01 0.01 0.02 0.05 0.11 0.13 0.07 0.05 0.06 0.03 0.03 0.02 0.02 0.03 0.03 0.03 0.03 0.03 0.03 0.04 0.04 0.03 0.02 0.02 0.01 0.02 0.02 0.03 0.03 0.05 0.06 0.08 0.08 0.08 0.07 0.07 0.07 0.06 0.06 0.06 0.07
0.01 0.02 0.02 0.01 0.01 0.02 0.06 0.10 0.11 0.11 0.12 0.11 0.05 0.02 0.02 0.03 0.04 0.05 0.05 0.05 0.04 0.04 0.04 0.03 0.02 0.02 0.02 0.01 0.02 0.02 0.02 0.03 0.03 0.03 0.03 0.03 0.03 0.02 0.03 0.03 0.04 0.04 0.04 0.06
0.01 0.01 0.02 0.03 0.02 0.01 0.02 0.04 0.05 0.05 0.09 0.09 0.06 0.03 0.03 0.03 0.04 0.05 0.05 0.06 0.07 0.06 0.04 0.02 0.01 0.01 0.01 0.01 0.01 0.01 0.01 0.02 0.02 0.02 0.03 0.03 0.03 0.02 0.02 0.02 0.02 0.03 0.03 0.05
0.01 0.01 0.01 0.01 0.02 0.03 0.02 0.03 0.03 0.03 0.04 0.04 0.03 0.03 0.02 0.02 0.03 0.03 0.04 0.04 0.04 0.04 0.03 0.02 0.01 0.01 0.01 0.01 0.01 0.01 0.01 0.01 0.02 0.02 0.02 0.03 0.03 0.03 0.03 0.02 0.02 0.02 0.02 0.03
0.02 0.03 0.02 0.01 0.01 0.02 0.02 0.02 0.03 0.03 0.03 0.02 0.02 0.02 0.02 0.02 0.02 0.02 0.02 0.02 0.01 0.01 0.01 0.02 0.02 0.02 0.02 0.01 0.01 0.02 0.02 0.02 0.02 0.02 0.03 0.03 0.04 0.04 0.03 0.03 0.02 0.02 0.02 0.03
0.02 0.02 0.02 0.02 0.01 0.01 0.00 0.01 0.01 0.02 0.02 0.02 0.02 0.02 0.02 0.02 0.02 0.02 0.01 0.01 0.01 0.01 0.01 0.02 0.02 0.02 0.02 0.02 0.02 0.02 0.02 0.03 0.03 0.04 0.06 0.06 0.06 0.05 0.04 0.04 0.03 0.02 0.02 0.02
0.01 0.01 0.02 0.01 0.01 0.00 0.00 0.00 0.00 0.01 0.02 0.03 0.02 0.02 0.02 0.03 0.03 0.02 0.02 0.02 0.02 0.02 0.01 0.01 0.02 0.02 0.02 0.03 0.03 0.02 0.03 0.05 0.04 0.03 0.04 0.05 0.04 0.03 0.02 0.02 0.02 0.01 0.03 0.04
0.01 0.01 0.01 0.01 0.01 0.01 0.00 0.00 0.00 0.01 0.01 0.04 0.04 0.04 0.04 0.04 0.04 0.04 0.04 0.04 0.03 0.02 0.01 0.01 0.02 0.04 0.03 0.03 0.02 0.02 0.02 0.03 0.05 0.05 0.04 0.04 0.04 0.03 0.03 0.02 0.02 0.02 0.04 0.06
0.01 0.01 0.02 0.03 0.02 0.01 0.01 0.01 0.02 0.03 0.06 0.08 0.07 0.08 0.07 0.05 0.04 0.05 0.05 0.06 0.05 0.03 0.03 0.02 0.03 0.04 0.04 0.03 0.02 0.02 0.02 0.02 0.03 0.04 0.04 0.04 0.04 0.04 0.03 0.03 0.03 0.04 0.04 0.05
0.02 0.01 0.02 0.02 0.01 0.01 0.02 0.02 0.04 0.06 0.09 0.13 0.13 0.13 0.12 0.10 0.07 0.06 0.07 0.08 0.07 0.05 0.04 0.03 0.04 0.04 0.03 0.04 0.03 0.03 0.03 0.03 0.03 0.03 0.03 0.03 0.04 0.06 0.06 0.05 0.05 0.04 0.04 0.04
0.02 0.01 0.01 0.01 0.01 0.01 0.02 0.03 0.03 0.05 0.08 0.11 0.12 0.13 0.13 0.12 0.10 0.07 0.08 0.09 0.08 0.06 0.05 0.04 0.04 0.04 0.04 0.04 0.04 0.03 0.03 0.03 0.03 0.04 0.04 0.03 0.03 0.05 0.06 0.08 0.07 0.06 0.05 0.04
0.01 0.01 0.02 0.02 0.01 0.01 0.02 0.03 0.04 0.06 0.07 0.08 0.07 0.07 0.08 0.08 0.08 0.06 0.05 0.05 0.05 0.04 0.03 0.02 0.02 0.03 0.04 0.05 0.05 0.05 0.05 0.05 0.06 0.06 0.06 0.06 0.06 0.06 0.06 0.07 0.07 0.07 0.07 0.06
0.01 0.01 0.01 0.02 0.02 0.01 0.01 0.02 0.04 0.06 0.06 0.06 0.06 0.04 0.04 0.04 0.05 0.04 0.03 0.03 0.02 0.02 0.02 0.02 0.04 0.06 0.05 0.05 0.06 0.07 0.08 0.08 0.09 0.09 0.08 0.08 0.07 0.06 0.06 0.06 0.06 0.06 0.07 0.07
0.01 0.01 0.01 0.01 0.02 0.02 0.02 0.01 0.02 0.03 0.04 0.04 0.04 0.03 0.03 0.03 0.03 0.04 0.03 0.02 0.02 0.02 0.02 0.03 0.04 0.06 0.06 0.06 0.06 0.05 0.05 0.06 0.06 0.06 0.05 0.05 0.05 0.05 0.05 0.05 0.06 0.05 0.05 0.06
MSLP
1009.84 1009.24 1008.67 1008.16 1007.74 1007.37 1007.05 1006.74 1006.40 1006.01 1005.56 1005.05 1004.51 1003.96 1003.45 1002.99 1002.61 1002.31 1002.08 1001.92 1001.82 1001.77 1001.78 1001.85 1002.02 1002.29 1002.69 1003.21 1003.83 1004.54 1005.27 1005.98 1006.64 1007.22 1007.70 1008.10 1008.43 1008.74 1009.06 1009.42 1009.82 1010.28 1010.75 1011.21
1009.95 1009.34 1008.71 1008.09 1007.51 1006.98 1006.53 1006.14 1005.81 1005.52 1005.26 1005.03 1004.81 1004.59 1004.37 1004.13 1003.87 1003.58 1003.25 1002.89 1002.51 1002.14 1001.83 1001.60 1001.51 1001.59 1001.84 1002.28 1002.87 1003.56 1004.30 1005.03 1005.70 1006.29 1006.78 1007.19 1007.54 1007.87 1008.21 1008.60 1009.04 1009.53 1010.03 1010.52
1010.30 1009.72 1009.07 1008.39 1007.72 1007.09 1006.54 1006.10 1005.77 1005.55 1005.44 1005.41 1005.43 1005.45 1005.45 1005.37 1005.18 1004.87 1004.44 1003.89 1003.27 1002.63 1002.03 1001.54 1001.21 1001.09 1001.20 1001.52 1002.03 1002.67 1003.36 1004.07 1004.72 1005.29 1005.77 1006.17 1006.53 1006.87 1007.24 1007.66 1008.14 1008.66 1009.21 1009.73
1010.90 1010.38 1009.75 1009.06 1008.34 1007.66 1007.05 1006.57 1006.23 1006.04 1006.01 1006.09 1006.25 1006.41 1006.53 1006.53 1006.38 1006.05 1005.52 1004.83 1004.03 1003.19 1002.38 1001.69 1001.18 1000.90 1000.87 1001.07 1001.48 1002.02 1002.63 1003.26 1003.85 1004.37 1004.81 1005.19 1005.54 1005.89 1006.28 1006.73 1007.24 1007.79 1008.35 1008.89
1011.68 1011.23 1010.65 1009.98 1009.26 1008.55 1007.91 1007.38 1007.01 1006.81 1006.79 1006.89 1007.09 1007.30 1007.46 1007.49 1007.34 1006.97 1006.40 1005.63 1004.74 1003.79 1002.87 1002.07 1001.46 1001.07 1000.93 1001.03 1001.32 1001.75 1002.25 1002.77 1003.26 1003.70 1004.08 1004.42 1004.75 1005.10 1005.50 1005.96 1006.48 1007.04 1007.62 1008.16
1012.52 1012.12 1011.59 1010.96 1010.26 1009.55 1008.89 1008.33 1007.92 1007.67 1007.59 1007.65 1007.81 1007.99 1008.13 1008.14 1007.98 1007.60 1007.02 1006.26 1005.36 1004.41 1003.49 1002.68 1002.04 1001.61 1001.41 1001.42 1001.62 1001.93 1002.31 1002.71 1003.08 1003.42 1003.72 1004.01 1004.30 1004.64 1005.03 1005.49 1006.01 1006.57 1007.12 1007.65
1013.25 1012.90 1012.42 1011.84 1011.18 1010.49 1009.82 1009.23 1008.77 1008.45 1008.28 1008.26 1008.32 1008.43 1008.50 1008.47 1008.29 1007.94 1007.40 1006.70 1005.88 1005.02 1004.19 1003.46 1002.87 1002.46 1002.25 1002.22 1002.34 1002.55 1002.81 1003.09 1003.35 1003.59 1003.82 1004.05 1004.30 1004.61 1004.99 1005.43 1005.93 1006.46 1006.98 1007.47
1013.77 1013.44 1013.02 1012.49 1011.88 1011.22 1010.57 1009.96 1009.45 1009.06 1008.80 1008.66 1008.62 1008.62 1008.61 1008.53 1008.35 1008.03 1007.57 1006.99 1006.31 1005.61 1004.94 1004.34 1003.87 1003.54 1003.36 1003.32 1003.38 1003.52 1003.68 1003.86 1004.03 1004.19 1004.34 1004.52 1004.74 1005.02 1005.37 1005.79 1006.26 1006.74 1007.22 1007.65
1014.02 1013.71 1013.32 1012.85 1012.30 1011.70 1011.08 1010.48 1009.94 1009.49 1009.14 1008.90 1008.74 1008.64 1008.55 1008.43 1008.25 1007.98 1007.62 1007.18 1006.68 1006.17 1005.68 1005.26 1004.92 1004.70 1004.58 1004.55 1004.59 1004.68 1004.78 1004.88 1004.98 1005.08 1005.19 1005.33 1005.52 1005.78 1006.11 1006.50 1006.92 1007.36 1007.78 1008.15
1014.01 1013.72 1013.38 1012.97 1012.49 1011.96 1011.39 1010.83 1010.28 1009.80 1009.39 1009.06 1008.81 1008.61 1008.45 1008.30 1008.12 1007.91 1007.65 1007.34 1007.02 1006.69 1006.39 1006.13 1005.94 1005.82 1005.77 1005.77 1005.81 1005.87 1005.93 1005.99 1006.04 1006.11 1006.19 1006.32 1006.50 1006.75 1007.05 1007.40 1007.79 1008.17 1008.53 1008.85
1013.85 1013.58 1013.28 1012.95 1012.55 1012.10 1011.60 1011.08 1010.57 1010.07 1009.63 1009.24 1008.92 1008.66 1008.44 1008.26 1008.08 1007.91 1007.74 1007.55 1007.37 1007.19 1007.05 1006.93 1006.86 1006.82 1006.82 1006.85 1006.89 1006.94 1006.98 1007.02 1007.06 1007.12 1007.20 1007.33 1007.51 1007.74 1008.03 1008.35 1008.70 1009.04 1009.35 1009.61
1013.65 1013.41 1013.17 1012.90 1012.59 1012.23 1011.82 1011.36 1010.89 1010.42 1009.96 1009.54 1009.18 1008.87 1008.61 1008.40 1008.23 1008.08 1007.96 1007.86 1007.78 1007.71 1007.66 1007.64 1007.64 1007.66 1007.69 1007.73 1007.77 1007.81 1007.85 1007.88 1007.93 1007.99 1008.08 1008.22 1008.41 1008.64 1008.91 1009.21 1009.52 1009.81 1010.08 1010.31
1013.53 1013.33 1013.15 1012.95 1012.73 1012.45 1012.12 1011.73 1011.31 1010.87 1010.42 1010.00 1009.61 1009.27 1008.99 1008.76 1008.58 1008.46 1008.37 1008.31 1008.28 1008.27 1008.27 1008.29 1008.32 1008.36 1008.40 1008.43 1008.47 1008.49 1008.53 1008.56 1008.62 1008.69 1008.81 1008.95 1009.15 1009.37 1009.63 1009.90 1010.17 1010.43 1010.66 1010.85
1013.56 1013.42 1013.29 1013.16 1013.00 1012.80 1012.54 1012.22 1011.85 1011.44 1011.02 1010.60 1010.21 1009.86 1009.56 1009.32 1009.15 1009.02 1008.95 1008.91 1008.89 1008.90 1008.92 1008.94 1008.96 1008.99 1009.00 1009.02 1009.03 1009.05 1009.07 1009.11 1009.17 1009.26 1009.39 1009.55 1009.74 1009.95 1010.19 1010.43 1010.66 1010.88 1011.07 1011.24
1013.76 1013.67 1013.59 1013.52 1013.42 1013.27 1013.06 1012.80 1012.47 1012.10 1011.70 1011.30 1010.92 1010.57 1010.28 1010.04 1009.87 1009.75 1009.67 1009.64 1009.62 1009.62 1009.63 1009.63 1009.62 1009.61 1009.59 1009.57 1009.56 1009.55 1009.57 1009.61 1009.67 1009.77 1009.90 1010.06 1010.24 1010.44 1010.64 1010.85 1011.04 1011.21 1011.37 1011.50
1014.09 1014.04 1014.01 1013.98 1013.92 1013.81 1013.64 1013.41 1013.12 1012.78 1012.41 1012.03 1011.67 1011.35 1011.07 1010.85 1010.68 1010.57 1010.50 1010.46 1010.44 1010.42 1010.40 1010.36 1010.32 1010.27 1010.21 1010.15 1010.11 1010.09 1010.09 1010.13 1010.19 1010.29 1010.42 1010.57 1010.73 1010.90 1011.07 1011.23 1011.37 1011.50 1011.62 1011.72
1014.47 1014.47 1014.48 1014.47 1014.44 1014.36 1014.21 1014.00 1013.73 1013.42 1013.08 1012.73 1012.40 1012.11 1011.86 1011.66 1011.52 1011.42 1011.36 1011.32 1011.29 1011.26 1011.21 1011.14 1011.06 1010.97 1010.88 1010.79 1010.73 1010.68 1010.68 1010.70 1010.77 1010.86 1010.98 1011.11 1011.25 1011.39 1011.52 1011.63 1011.73 1011.81 1011.87 1011.94
1014.84 1014.87 1014.91 1014.93 1014.91 1014.85 1014.71 1014.52 1014.27 1013.98 1013.67 1013.35 1013.06 1012.80 1012.59 1012.43 1012.31 1012.24 1012.19 1012.15 1012.12 1012.07 1012.00 1011.91 1011.80 1011.68 1011.56 1011.46 1011.37 1011.32 1011.30 1011.32 1011.38 1011.46 1011.57 1011.68 1011.80 1011.90 1011.99 1012.06 1012.11 1012.14 1012.16 1012.18
1015.13 1015.20 1015.27 1015.30 1015.30 1015.24 1015.12 1014.94 1014.71 1014.44 1014.16 1013.88 1013.62 1013.40 1013.22 1013.09 1013.00 1012.95 1012.91 1012.88 1012.83 1012.78 1012.69 1012.58 1012.46 1012.32 1012.19 1012.07 1011.97 1011.92 1011.90 1011.92 1011.97 1012.05 1012.14 1012.23 1012.32 1012.39 1012.44 1012.47 1012.48 1012.47 1012.45 1012.43
1015.33 1015.44 1015.52 1015.58 1015.58 1015.53 1015.42 1015.25 1015.04 1014.79 1014.54 1014.29 1014.07 1013.88 1013.73 1013.62 1013.55 1013.51 1013.47 1013.43 1013.39 1013.31 1013.21 1013.09 1012.95 1012.81 1012.67 1012.55 1012.46 1012.40 1012.39 1012.40 1012.45 1012.52 1012.60 1012.68 1012.74 1012.78 1012.80 1012.79 1012.77 1012.73 1012.68 1012.63
1015.47 1015.59 1015.69 1015.76 1015.77 1015.73 1015.62 1015.47 1015.27 1015.05 1014.82 1014.59 1014.39 1014.23 1014.10 1014.00 1013.93 1013.88 1013.84 1013.79 1013.72 1013.64 1013.52 1013.39 1013.25 1013.10 1012.96 1012.84 1012.76 1012.71 1012.70 1012.72 1012.76 1012.82 1012.88 1012.94 1012.98 1012.99 1012.98 1012.95 1012.89 1012.83 1012.76 1012.69
1015.56 1015.69 1015.80 1015.87 1015.88 1015.84 1015.74 1015.59 1015.41 1015.20 1014.99 1014.79 1014.60 1014.44 1014.31 1014.22 1014.14 1014.07 1014.01 1013.93 1013.84 1013.73 1013.60 1013.46 1013.31 1013.17 1013.04 1012.93 1012.86 1012.82 1012.81 1012.83 1012.86 1012.91 1012.95 1012.98 1012.99 1012.97 1012.93 1012.87 1012.80 1012.72 1012.64 1012.57
1015.63 1015.76 1015.86 1015.91 1015.92 1015.86 1015.76 1015.62 1015.44 1015.25 1015.04 1014.85 1014.67 1014.51 1014.38 1014.26 1014.16 1014.07 1013.98 1013.88 1013.76 1013.63 1013.49 1013.34 1013.19 1013.05 1012.93 1012.83 1012.77 1012.74 1012.73 1012.74 1012.77 1012.79 1012.81 1012.80 1012.77 1012.72 1012.65 1012.57 1012.48 1012.39 1012.31 1012.24
1015.68 1015.79 1015.86 1015.89 1015.87 1015.79 1015.68 1015.53 1015.35 1015.16 1014.96 1014.77 1014.59 1014.43 1014.29 1014.15 1014.03 1013.91 1013.79 1013.66 1013.52 1013.37 1013.22 1013.07 1012.92 1012.79 1012.68 1012.60 1012.55 1012.52 1012.51 1012.51 1012.51 1012.51 1012.48 1012.44 1012.37 1012.28 1012.17 1012.05 1011.94 1011.84 1011.77 1011.72
1015.70 1015.76 1015.79 1015.77 1015.71 1015.60 1015.47 1015.30 1015.12 1014.93 1014.74 1014.55 1014.37 1014.21 1014.06 1013.91 1013.77 1013.63 1013.49 1013.34 1013.19 1013.03 1012.87 1012.72 1012.59 1012.47 1012.37 1012.30 1012.25 1012.22 1012.20 1012.18 1012.15 1012.11 1012.04 1011.94 1011.82 1011.68 1011.53 1011.39 1011.25 1011.14 1011.07 1011.04
1015.62 1015.63 1015.60 1015.52 1015.42 1015.28 1015.12 1014.94 1014.75 1014.56 1014.37 1014.20 1014.03 1013.87 1013.72 1013.58 1013.43 1013.29 1013.14 1012.98 1012.82 1012.66 1012.51 1012.36 1012.23 1012.12 1012.03 1011.97 1011.91 1011.87 1011.83 1011.78 1011.71 1011.62 1011.50 1011.35 1011.18 1010.99 1010.80 1010.62 1010.47 1010.35 1010.28 1010.27
1015.42 1015.36 1015.27 1015.14 1014.99 1014.82 1014.63 1014.44 1014.26 1014.08 1013.91 1013.75 1013.60 1013.46 1013.33 1013.20 1013.06 1012.92 1012.78 1012.62 1012.47 1012.31 1012.16 1012.02 1011.89 1011.78 1011.69 1011.61 1011.54 1011.47 1011.40 1011.31 1011.20 1011.06 1010.89 1010.69 1010.47 1010.24 1010.01 1009.80 1009.63 1009.51 1009.44 1009.44
Thickness
5711 5721 5725 5727 5732 5734 5730 5726 5722 5731 5735 5751 5762 5765 5769 5773 5777 5780 5782 5785 5786 5786 5787 5788 5787 5785 5783 5781 5778 5776 5773 5770 5768 5765 5762 5759 5758 5759 5759 5757 5755 5753 5751 5749
5701 5712 5715 5717 5725 5729 5730 5731 5729 5731 5734 5751 5757 5758 5760 5762 5765 5767 5770 5774 5776 5777 5778 5778 5778 5776 5774 5773 5771 5769 5766 5765 5763 5760 5758 5754 5753 5753 5753 5752 5750 5749 5747 5744
5680 5696 5702 5698 5715 5720 5722 5727 5727 5724 5734 5743 5744 5746 5749 5753 5755 5756 5760 5763 5766 5768 5769 5770 5770 5768 5766 5765 5763 5760 5757 5757 5755 5753 5751 5750 5749 5747 5746 5746 5745 5743 5742 5739
5663 5679 5674 5697 5717 5719 5716 5719 5724 5726 5730 5734 5735 5736 5740 5744 5745 5746 5750 5754 5757 5760 5761 5762 5763 5762 5761 5758 5755 5753 5751 5749 5748 5746 5745 5744 5742 5741 5740 5740 5738 5737 5736 5734
5650 5657 5671 5693 5707 5707 5704 5705 5715 5717 5720 5723 5725 5726 5728 5735 5737 5739 5743 5746 5749 5753 5755 5754 5754 5754 5751 5749 5748 5746 5744 5742 5742 5741 5738 5737 5735 5733 5733 5732 5730 5730 5729 5728
5644 5650 5654 5681 5700 5706 5701 5691 5707 5709 5710 5712 5713 5705 5712 5725 5728 5730 5734 5738 5741 5743 5744 5742 5744 5744 5741 5739 5738 5736 5736 5736 5735 5734 5731 5729 5727 5726 5725 5724 5722 5721 5720 5721
5638 5643 5657 5680 5690 5696 5679 5685 5699 5702 5703 5704 5702 5703 5709 5715 5718 5721 5725 5728 5731 5732 5731 5731 5733 5732 5730 5729 5728 5729 5729 5727 5726 5724 5723 5721 5720 5719 5717 5715 5714 5712 5711 5712
5629 5635 5648 5675 5677 5675 5678 5687 5691 5693 5694 5694 5696 5700 5702 5705 5709 5712 5713 5717 5719 5720 5720 5722 5723 5722 5719 5718 5720 5720 5719 5717 5716 5715 5713 5713 5711 5710 5708 5706 5704 5702 5702 5702
5634 5641 5655 5662 5666 5673 5676 5678 5682 5683 5686 5686 5687 5689 5692 5696 5699 5701 5703 5706 5709 5710 5711 5711 5712 5711 5709 5710 5710 5709 5707 5705 5704 5704 5702 5701 5700 5698 5696 5694 5693 5692 5691 5691
5631 5641 5650 5657 5663 5667 5670 5672 5675 5677 5679 5680 5679 5681 5683 5686 5688 5691 5695 5698 5699 5699 5698 5699 5700 5700 5699 5700 5699 5697 5695 5694 5693 5692 5691 5690 5688 5687 5685 5684 5683 5682 5682 5681
5625 5635 5644 5652 5655 5659 5663 5666 5668 5669 5671 5672 5672 5673 5674 5677 5680 5683 5685 5687 5689 5688 5688 5689 5689 5688 5688 5688 5687 5685 5683 5683 5681 5681 5680 5679 5677 5676 5676 5676 5674 5673 5674 5673
5622 5632 5633 5639 5648 5652 5653 5655 5658 5660 5661 5663 5664 5665 5666 5668 5672 5674 5676 5678 5678 5678 5678 5678 5677 5677 5677 5678 5677 5675 5674 5672 5671 5670 5669 5668 5667 5666 5666 5665 5665 5665 5664 5664
5627 5632 5632 5637 5641 5643 5644 5646 5649 5650 5651 5652 5655 5657 5658 5659 5662 5665 5667 5668 5668 5669 5668 5668 5668 5667 5667 5667 5667 5665 5663 5663 5662 5661 5660 5658 5657 5656 5655 5655 5654 5654 5653 5653
5624 5625 5626 5630 5632 5635 5636 5638 5640 5641 5643 5644 5646 5649 5650 5650 5652 5653 5655 5657 5658 5658 5658 5658 5658 5658 5659 5658 5657 5655 5654 5654 5653 5652 5651 5648 5647 5646 5645 5644 5644 5644 5643 5642
5619 5620 5620 5622 5625 5627 5629 5630 5630 5631 5633 5634 5636 5639 5640 5641 5642 5643 5645 5647 5647 5648 5648 5649 5649 5649 5649 5648 5647 5645 5644 5644 5643 5641 5640 5638 5637 5636 5635 5634 5634 5634 5634 5633
5613 5614 5614 5614 5616 5618 5620 5622 5622 5623 5625 5626 5628 5630 5632 5633 5634 5635 5636 5637 5638 5638 5638 5639 5639 5640 5640 5639 5637 5636 5635 5636 5634 5632 5630 5628 5627 5626 5624 5624 5624 5624 5624 5623
5605 5606 5607 5607 5608 5610 5612 5614 5615 5617 5618 5620 5622 5623 5624 5626 5626 5627 5629 5629 5629 5629 5629 5629 5630 5631 5630 5630 5628 5627 5627 5627 5626 5624 5622 5620 5618 5617 5616 5615 5615 5615 5614 5614
5604 5604 5604 5603 5604 5604 5606 5608 5609 5610 5612 5615 5615 5615 5616 5617 5619 5620 5621 5621 5620 5621 5621 5621 5621 5621 5622 5621 5620 5618 5617 5617 5617 5615 5613 5611 5610 5609 5608 5607 5606 5606 5605 5603
5599 5600 5599 5599 5599 5599 5600 5601 5603 5605 5607 5608 5609 5609 5610 5612 5613 5613 5613 5612 5612 5612 5614 5614 5613 5613 5612 5611 5610 5609 5609 5609 5608 5607 5605 5603 5602 5601 5600 5599 5598 5597 5596 5595
5594 5595 5594 5594 5595 5595 5596 5598 5599 5599 5601 5603 5603 5604 5605 5606 5607 5606 5606 5604 5604 5605 5606 5605 5605 5604 5603 5603 5603 5602 5602 5602 5601 5600 5597 5596 5595 5594 5593 5592 5591 5590 5589 5588
5588 5589 5589 5589 5590 5592 5593 5593 5593 5594 5596 5598 5598 5598 5599 5600 5600 5599 5598 5598 5598 5598 5598 5597 5597 5597 5597 5596 5595 5595 5595 5594 5593 5592 5590 5589 5588 5587 5586 5585 5584 5583 5582 5581
5583 5584 5585 5585 5585 5586 5588 5588 5589 5591 5592 5592 5593 5593 5593 5593 5593 5593 5592 5591 5591 5591 5591 5591 5590 5590 5590 5589 5589 5589 5588 5587 5585 5584 5583 5581 5580 5579 5578 5577 5577 5576 5575 5574
5579 5579 5580 5580 5580 5581 5582 5584 5586 5586 5587 5588 5588 5587 5586 5586 5586 5586 5586 5586 5585 5584 5584 5584 5583 5583 5583 5583 5583 5582 5581 5579 5577 5576 5575 5574 5573 5572 5571 5570 5569 5569 5568 5567
5575 5575 5575 5576 5576 5576 5577 5579 5580 5581 5582 5582 5582 5581 5581 5580 5580 5580 5579 5578 5578 5578 5577 5576 5576 5576 5577 5576 5575 5574 5573 5571 5570 5569 5568 5567 5565 5565 5564 5563 5562 5561 5560 5559
5572 5572 5572 5572 5572 5572 5573 5574 5575 5576 5576 5576 5577 5576 5575 5574 5574 5574 5573 5572 5572 5572 5571 5570 5570 5570 5570 5569 5569 5567 5565 5564 5563 5561 5561 5560 5558 5558 5557 5556 5555 5554 5553 5552
5569 5568 5569 5569 5569 5569 5569 5569 5570 5570 5570 5571 5571 5571 5570 5569 5568 5567 5567 5566 5566 5565 5565 5565 5564 5564 5564 5563 5562 5561 5560 5558 5557 5557 5555 5554 5552 5551 5550 5549 5548 5547 5546 5545
5566 5566 5566 5566 5567 5567 5566 5566 5566 5566 5566 5566 5566 5566 5565 5564 5564 5563 5562 5561 5561 5560 5560 5559 5559 5558 5558 5557 5556 5555 5553 5552 5552 5551 5549 5548 5547 5546 5545 5544 5543 5542 5541 5539